#datetime,building,power
2024-03-30T00:00:00,pth,2.40
2024-03-30T00:01:00,pth,3.60
2024-03-30T00:03:00,pth,7.20
2024-03-30T00:05:00,pth,6.00
2024-03-30T00:07:00,pth,6.00
2024-03-30T00:08:00,pth,3.60
2024-03-30T00:09:00,pth,3.60
2024-03-30T00:11:00,pth,6.00
2024-03-30T00:12:00,pth,2.40
2024-03-30T00:14:00,pth,7.20
2024-03-30T00:16:00,pth,6.00
2024-03-30T00:17:00,pth,2.40
2024-03-30T00:19:00,pth,6.00
2024-03-30T00:21:00,pth,4.80
2024-03-30T00:23:00,pth,6.00
2024-03-30T00:24:00,pth,3.60
2024-03-30T00:25:00,pth,3.60
2024-03-30T00:27:00,pth,7.20
2024-03-30T00:29:00,pth,7.20
2024-03-30T00:30:00,pth,3.60
2024-03-30T00:32:00,pth,4.80
2024-03-30T00:33:00,pth,2.40
2024-03-30T00:35:00,pth,4.80
2024-03-30T00:36:00,pth,2.40
2024-03-30T00:38:00,pth,3.60
2024-03-30T00:39:00,pth,2.40
2024-03-30T00:41:00,pth,4.80
2024-03-30T00:42:00,pth,2.40
2024-03-30T00:43:00,pth,2.40
2024-03-30T00:45:00,pth,4.80
2024-03-30T00:47:00,pth,4.80
2024-03-30T00:48:00,pth,2.40
2024-03-30T00:50:00,pth,4.80
2024-03-30T00:51:00,pth,2.40
2024-03-30T00:52:00,pth,2.40
2024-03-30T00:54:00,pth,4.80
2024-03-30T00:56:00,pth,3.60
2024-03-30T00:57:00,pth,2.40
2024-03-30T00:59:00,pth,4.80
2024-03-30T01:01:00,pth,3.60
2024-03-30T01:02:00,pth,2.40
2024-03-30T01:04:00,pth,4.80
2024-03-30T01:06:00,pth,4.80
2024-03-30T01:07:00,pth,2.40
2024-03-30T01:08:00,pth,1.20
2024-03-30T01:10:00,pth,4.80
2024-03-30T01:12:00,pth,3.60
2024-03-30T01:14:00,pth,4.80
2024-03-30T01:15:00,pth,2.40
2024-03-30T01:17:00,pth,4.80
2024-03-30T01:19:00,pth,4.80
2024-03-30T01:21:00,pth,4.80
2024-03-30T01:23:00,pth,4.80
2024-03-30T01:25:00,pth,3.60
2024-03-30T01:27:00,pth,4.80
2024-03-30T01:28:00,pth,2.40
2024-03-30T01:30:00,pth,4.80
2024-03-30T01:31:00,pth,2.40
2024-03-30T01:33:00,pth,4.80
2024-03-30T01:35:00,pth,4.80
2024-03-30T01:37:00,pth,4.80
2024-03-30T01:38:00,pth,2.40
2024-03-30T01:40:00,pth,4.80
2024-03-30T01:42:00,pth,4.80
2024-03-30T01:44:00,pth,3.60
2024-03-30T01:46:00,pth,4.80
2024-03-30T01:47:00,pth,2.40
2024-03-30T01:49:00,pth,4.80
2024-03-30T01:50:00,pth,2.40
2024-03-30T01:52:00,pth,4.80
2024-03-30T01:54:00,pth,4.80
2024-03-30T01:55:00,pth,2.40
2024-03-30T01:57:00,pth,4.80
2024-03-30T01:58:00,pth,2.40
2024-03-30T01:59:00,pth,2.40
2024-03-30T02:01:00,pth,4.80
2024-03-30T02:03:00,pth,4.80
2024-03-30T02:05:00,pth,6.00
2024-03-30T02:07:00,pth,4.80
2024-03-30T02:08:00,pth,2.40
2024-03-30T02:10:00,pth,4.80
2024-03-30T02:12:00,pth,3.60
2024-03-30T02:13:00,pth,2.40
2024-03-30T02:15:00,pth,4.80
2024-03-30T02:16:00,pth,2.40
2024-03-30T02:18:00,pth,4.80
2024-03-30T02:20:00,pth,3.60
2024-03-30T02:22:00,pth,4.80
2024-03-30T02:24:00,pth,4.80
2024-03-30T02:25:00,pth,2.40
2024-03-30T02:27:00,pth,4.80
2024-03-30T02:29:00,pth,4.80
2024-03-30T02:31:00,pth,4.80
2024-03-30T02:33:00,pth,4.80
2024-03-30T02:35:00,pth,3.60
2024-03-30T02:37:00,pth,4.80
2024-03-30T02:38:00,pth,2.40
2024-03-30T02:40:00,pth,3.60
2024-03-30T02:41:00,pth,2.40
2024-03-30T02:43:00,pth,4.80
2024-03-30T02:45:00,pth,3.60
2024-03-30T02:46:00,pth,2.40
2024-03-30T02:48:00,pth,4.80
2024-03-30T02:50:00,pth,3.60
2024-03-30T02:51:00,pth,2.40
2024-03-30T02:53:00,pth,4.80
2024-03-30T02:54:00,pth,1.19
2024-03-30T02:56:00,pth,4.80
2024-03-30T02:58:00,pth,3.60
2024-03-30T03:00:00,pth,4.80
2024-03-30T03:01:00,pth,2.40
2024-03-30T03:03:00,pth,3.60
2024-03-30T03:04:00,pth,2.40
2024-03-30T03:05:00,pth,2.40
2024-03-30T03:07:00,pth,4.80
2024-03-30T03:08:00,pth,1.19
2024-03-30T03:10:00,pth,4.80
2024-03-30T03:12:00,pth,4.80
2024-03-30T03:13:00,pth,2.40
2024-03-30T03:15:00,pth,3.60
2024-03-30T03:17:00,pth,4.80
2024-03-30T03:18:00,pth,2.40
2024-03-30T03:19:00,pth,2.40
2024-03-30T03:20:00,pth,2.40
2024-03-30T03:22:00,pth,3.60
2024-03-30T03:24:00,pth,4.80
2024-03-30T03:26:00,pth,4.80
2024-03-30T03:28:00,pth,3.60
2024-03-30T03:30:00,pth,4.80
2024-03-30T03:32:00,pth,4.80
2024-03-30T03:33:00,pth,2.40
2024-03-30T03:35:00,pth,3.60
2024-03-30T03:37:00,pth,4.80
2024-03-30T03:38:00,pth,2.40
2024-03-30T03:40:00,pth,3.60
2024-03-30T03:42:00,pth,4.80
2024-03-30T03:43:00,pth,2.40
2024-03-30T03:45:00,pth,4.80
2024-03-30T03:47:00,pth,3.60
2024-03-30T03:48:00,pth,2.40
2024-03-30T03:50:00,pth,4.80
2024-03-30T03:52:00,pth,3.60
2024-03-30T03:54:00,pth,4.80
2024-03-30T03:55:00,pth,2.40
2024-03-30T03:57:00,pth,3.60
2024-03-30T03:58:00,pth,2.40
2024-03-30T04:00:00,pth,4.80
2024-03-30T04:02:00,pth,3.60
2024-03-30T04:04:00,pth,3.60
2024-03-30T04:06:00,pth,4.80
2024-03-30T04:07:00,pth,2.40
2024-03-30T04:09:00,pth,3.60
2024-03-30T04:11:00,pth,4.80
2024-03-30T04:12:00,pth,2.40
2024-03-30T04:14:00,pth,3.60
2024-03-30T04:16:00,pth,4.80
2024-03-30T04:18:00,pth,3.60
2024-03-30T04:20:00,pth,4.80
2024-03-30T04:22:00,pth,4.80
2024-03-30T04:23:00,pth,2.40
2024-03-30T04:25:00,pth,3.60
2024-03-30T04:26:00,pth,2.40
2024-03-30T04:28:00,pth,3.60
2024-03-30T04:30:00,pth,3.60
2024-03-30T04:31:00,pth,2.40
2024-03-30T04:33:00,pth,4.80
2024-03-30T04:35:00,pth,3.60
2024-03-30T04:36:00,pth,2.40
2024-03-30T04:37:00,pth,2.40
2024-03-30T04:39:00,pth,3.60
2024-03-30T04:40:00,pth,1.20
2024-03-30T04:42:00,pth,4.80
2024-03-30T04:44:00,pth,3.60
2024-03-30T04:46:00,pth,4.80
2024-03-30T04:47:00,pth,2.40
2024-03-30T04:49:00,pth,4.80
2024-03-30T04:50:00,pth,1.20
2024-03-30T04:51:00,pth,2.40
2024-03-30T04:53:00,pth,4.80
2024-03-30T04:54:00,pth,2.40
2024-03-30T04:56:00,pth,3.60
2024-03-30T04:58:00,pth,4.80
2024-03-30T05:00:00,pth,4.80
2024-03-30T05:01:00,pth,1.20
2024-03-30T05:02:00,pth,2.40
2024-03-30T05:04:00,pth,4.80
2024-03-30T05:06:00,pth,3.60
2024-03-30T05:08:00,pth,4.80
2024-03-30T05:09:00,pth,2.40
2024-03-30T05:11:00,pth,3.60
2024-03-30T05:12:00,pth,2.40
2024-03-30T05:14:00,pth,4.80
2024-03-30T05:15:00,pth,2.40
2024-03-30T05:17:00,pth,3.60
2024-03-30T05:19:00,pth,4.80
2024-03-30T05:21:00,pth,4.80
2024-03-30T05:22:00,pth,2.40
2024-03-30T05:24:00,pth,3.60
2024-03-30T05:25:00,pth,2.40
2024-03-30T05:27:00,pth,4.80
2024-03-30T05:29:00,pth,3.60
2024-03-30T05:30:00,pth,2.40
2024-03-30T05:32:00,pth,3.60
2024-03-30T05:34:00,pth,4.80
2024-03-30T05:36:00,pth,4.80
2024-03-30T05:37:00,pth,1.20
2024-03-30T05:38:00,pth,2.40
2024-03-30T05:39:00,pth,2.40
2024-03-30T05:41:00,pth,4.80
2024-03-30T05:42:00,pth,2.40
2024-03-30T05:44:00,pth,3.60
2024-03-30T05:46:00,pth,3.60
2024-03-30T05:48:00,pth,4.80
2024-03-30T05:50:00,pth,4.80
2024-03-30T05:51:00,pth,1.20
2024-03-30T05:52:00,pth,2.40
2024-03-30T05:54:00,pth,3.60
2024-03-30T05:55:00,pth,2.40
2024-03-30T05:56:00,pth,2.40
2024-03-30T05:58:00,pth,3.60
2024-03-30T05:59:00,pth,2.40
2024-03-30T06:01:00,pth,4.80
2024-03-30T06:02:00,pth,2.40
2024-03-30T06:04:00,pth,3.60
2024-03-30T06:05:00,pth,2.40
2024-03-30T06:07:00,pth,3.60
2024-03-30T06:09:00,pth,4.80
2024-03-30T06:10:00,pth,1.20
2024-03-30T06:12:00,pth,4.80
2024-03-30T06:14:00,pth,3.60
2024-03-30T06:15:00,pth,2.40
2024-03-30T06:17:00,pth,3.60
2024-03-30T06:19:00,pth,3.60
2024-03-30T06:21:00,pth,4.80
2024-03-30T06:23:00,pth,3.60
2024-03-30T06:25:00,pth,4.80
2024-03-30T06:27:00,pth,3.60
2024-03-30T06:28:00,pth,2.40
2024-03-30T06:30:00,pth,4.80
2024-03-30T06:31:00,pth,1.20
2024-03-30T06:33:00,pth,4.80
2024-03-30T06:35:00,pth,3.60
2024-03-30T06:37:00,pth,4.80
2024-03-30T06:38:00,pth,2.40
2024-03-30T06:40:00,pth,3.60
2024-03-30T06:41:00,pth,2.40
2024-03-30T06:42:00,pth,1.19
2024-03-30T06:44:00,pth,4.80
2024-03-30T06:45:00,pth,1.20
2024-03-30T06:47:00,pth,4.80
2024-03-30T06:48:00,pth,2.40
2024-03-30T06:50:00,pth,3.60
2024-03-30T06:52:00,pth,4.80
2024-03-30T06:53:00,pth,2.40
2024-03-30T06:55:00,pth,4.80
2024-03-30T06:57:00,pth,4.80
2024-03-30T06:59:00,pth,3.60
2024-03-30T07:01:00,pth,4.80
2024-03-30T07:02:00,pth,2.40
2024-03-30T07:03:00,pth,2.40
2024-03-30T07:05:00,pth,3.60
2024-03-30T07:06:00,pth,2.40
2024-03-30T07:08:00,pth,4.80
2024-03-30T07:10:00,pth,3.60
2024-03-30T07:12:00,pth,4.80
2024-03-30T07:14:00,pth,3.60
2024-03-30T07:15:00,pth,2.40
2024-03-30T07:17:00,pth,4.80
2024-03-30T07:19:00,pth,3.60
2024-03-30T07:21:00,pth,4.80
2024-03-30T07:23:00,pth,4.80
2024-03-30T07:24:00,pth,2.40
2024-03-30T07:26:00,pth,4.80
2024-03-30T07:27:00,pth,2.40
2024-03-30T07:29:00,pth,3.60
2024-03-30T07:30:00,pth,2.40
2024-03-30T07:32:00,pth,4.80
2024-03-30T07:34:00,pth,3.60
2024-03-30T07:36:00,pth,4.80
2024-03-30T07:37:00,pth,1.19
2024-03-30T07:39:00,pth,4.80
2024-03-30T07:41:00,pth,3.60
2024-03-30T07:42:00,pth,2.40
2024-03-30T07:43:00,pth,2.40
2024-03-30T07:45:00,pth,3.60
2024-03-30T07:46:00,pth,2.40
2024-03-30T07:48:00,pth,3.60
2024-03-30T07:49:00,pth,2.40
2024-03-30T07:50:00,pth,1.20
2024-03-30T07:51:00,pth,2.40
2024-03-30T07:53:00,pth,3.60
2024-03-30T07:54:00,pth,2.40
2024-03-30T07:56:00,pth,3.60
2024-03-30T07:57:00,pth,2.40
2024-03-30T07:58:00,pth,2.40
2024-03-30T08:00:00,pth,3.60
2024-03-30T08:01:00,pth,2.40
2024-03-30T08:03:00,pth,4.80
2024-03-30T08:05:00,pth,4.80
2024-03-30T08:07:00,pth,3.60
2024-03-30T08:09:00,pth,4.80
2024-03-30T08:11:00,pth,4.80
2024-03-30T08:13:00,pth,3.60
2024-03-30T08:15:00,pth,4.80
2024-03-30T08:17:00,pth,4.80
2024-03-30T08:18:00,pth,1.20
2024-03-30T08:20:00,pth,4.80
2024-03-30T08:21:00,pth,1.20
2024-03-30T08:23:00,pth,4.80
2024-03-30T08:24:00,pth,1.19
2024-03-30T08:26:00,pth,4.80
2024-03-30T08:27:00,pth,1.20
2024-03-30T08:29:00,pth,4.80
2024-03-30T08:30:00,pth,2.40
2024-03-30T08:32:00,pth,3.60
2024-03-30T08:33:00,pth,2.40
2024-03-30T08:35:00,pth,3.60
2024-03-30T08:37:00,pth,4.80
2024-03-30T08:38:00,pth,2.40
2024-03-30T08:40:00,pth,4.80
2024-03-30T08:42:00,pth,3.60
2024-03-30T08:44:00,pth,4.80
2024-03-30T08:46:00,pth,4.80
2024-03-30T08:47:00,pth,2.40
2024-03-30T08:49:00,pth,3.60
2024-03-30T08:51:00,pth,4.80
2024-03-30T08:53:00,pth,3.60
2024-03-30T08:55:00,pth,7.20
2024-03-30T08:57:00,pth,4.80
2024-03-30T08:59:00,pth,4.80
2024-03-30T09:00:00,pth,2.40
2024-03-30T09:02:00,pth,4.80
2024-03-30T09:03:00,pth,1.20
2024-03-30T09:05:00,pth,6.00
2024-03-30T09:07:00,pth,4.80
2024-03-30T09:09:00,pth,4.80
2024-03-30T09:10:00,pth,1.19
2024-03-30T09:12:00,pth,3.60
2024-03-30T09:14:00,pth,4.80
2024-03-30T09:16:00,pth,3.60
2024-03-30T09:17:00,pth,2.40
2024-03-30T09:18:00,pth,2.40
2024-03-30T09:20:00,pth,3.60
2024-03-30T09:22:00,pth,3.60
2024-03-30T09:23:00,pth,2.40
2024-03-30T09:25:00,pth,3.60
2024-03-30T09:26:00,pth,1.20
2024-03-30T09:28:00,pth,3.60
2024-03-30T09:29:00,pth,2.40
2024-03-30T09:31:00,pth,4.80
2024-03-30T09:33:00,pth,8.40
2024-03-30T09:35:00,pth,15.60
2024-03-30T09:37:00,pth,18.00
2024-03-30T09:39:00,pth,14.40
2024-03-30T09:41:00,pth,16.80
2024-03-30T09:42:00,pth,8.40
2024-03-30T09:44:00,pth,15.60
2024-03-30T09:45:00,pth,7.20
2024-03-30T09:47:00,pth,16.80
2024-03-30T09:48:00,pth,7.20
2024-03-30T09:50:00,pth,15.60
2024-03-30T09:51:00,pth,8.40
2024-03-30T09:52:00,pth,7.20
2024-03-30T09:54:00,pth,14.40
2024-03-30T09:56:00,pth,15.60
2024-03-30T09:57:00,pth,7.20
2024-03-30T09:58:00,pth,7.20
2024-03-30T10:00:00,pth,15.60
2024-03-30T10:01:00,pth,7.20
2024-03-30T10:03:00,pth,14.40
2024-03-30T10:05:00,pth,14.40
2024-03-30T10:07:00,pth,15.60
2024-03-30T10:08:00,pth,8.40
2024-03-30T10:10:00,pth,14.40
2024-03-30T10:11:00,pth,8.40
2024-03-30T10:12:00,pth,7.20
2024-03-30T10:13:00,pth,7.20
2024-03-30T10:15:00,pth,15.60
2024-03-30T10:17:00,pth,14.40
2024-03-30T10:19:00,pth,15.60
2024-03-30T10:20:00,pth,7.20
2024-03-30T10:21:00,pth,8.39
2024-03-30T10:22:00,pth,7.20
2024-03-30T10:24:00,pth,15.60
2024-03-30T10:26:00,pth,15.60
2024-03-30T10:28:00,pth,16.80
2024-03-30T10:30:00,pth,14.40
2024-03-30T10:31:00,pth,3.60
2024-03-30T10:33:00,pth,4.80
2024-03-30T10:34:00,pth,2.40
2024-03-30T10:35:00,pth,2.40
2024-03-30T10:37:00,pth,4.80
2024-03-30T10:39:00,pth,3.60
2024-03-30T10:41:00,pth,4.80
2024-03-30T10:42:00,pth,2.40
2024-03-30T10:44:00,pth,4.80
2024-03-30T10:45:00,pth,2.40
2024-03-30T10:47:00,pth,6.01
2024-03-30T10:49:00,pth,15.59
2024-03-30T10:50:00,pth,7.21
2024-03-30T10:51:00,pth,8.39
2024-03-30T10:53:00,pth,15.60
2024-03-30T10:54:00,pth,7.20
2024-03-30T10:56:00,pth,14.40
2024-03-30T10:57:00,pth,8.40
2024-03-30T10:59:00,pth,15.60
2024-03-30T11:01:00,pth,14.40
2024-03-30T11:03:00,pth,15.60
2024-03-30T11:04:00,pth,7.20
2024-03-30T11:06:00,pth,16.80
2024-03-30T11:07:00,pth,8.40
2024-03-30T11:09:00,pth,16.80
2024-03-30T11:11:00,pth,15.60
2024-03-30T11:12:00,pth,8.39
2024-03-30T11:14:00,pth,16.80
2024-03-30T11:15:00,pth,8.40
2024-03-30T11:17:00,pth,15.60
2024-03-30T11:18:00,pth,8.40
2024-03-30T11:20:00,pth,15.60
2024-03-30T11:21:00,pth,7.20
2024-03-30T11:23:00,pth,15.60
2024-03-30T11:25:00,pth,15.60
2024-03-30T11:26:00,pth,7.20
2024-03-30T11:28:00,pth,15.60
2024-03-30T11:29:00,pth,7.20
2024-03-30T11:31:00,pth,10.80
2024-03-30T11:32:00,pth,7.20
2024-03-30T11:34:00,pth,15.60
2024-03-30T11:35:00,pth,3.60
2024-03-30T11:37:00,pth,13.20
2024-03-30T11:39:00,pth,10.80
2024-03-30T11:41:00,pth,12.00
2024-03-30T11:42:00,pth,8.40
2024-03-30T11:44:00,pth,7.20
2024-03-30T11:45:00,pth,2.40
2024-03-30T11:47:00,pth,4.80
2024-03-30T11:48:00,pth,4.80
2024-03-30T11:50:00,pth,7.20
2024-03-30T11:52:00,pth,6.01
2024-03-30T11:54:00,pth,7.20
2024-03-30T11:55:00,pth,2.40
2024-03-30T11:57:00,pth,4.80
2024-03-30T11:59:00,pth,3.60
2024-03-30T12:01:00,pth,4.80
2024-03-30T12:03:00,pth,4.80
2024-03-30T12:04:00,pth,2.40
2024-03-30T12:06:00,pth,4.80
2024-03-30T12:08:00,pth,3.60
2024-03-30T12:09:00,pth,2.40
2024-03-30T12:11:00,pth,4.80
2024-03-30T12:13:00,pth,6.01
2024-03-30T12:14:00,pth,3.60
2024-03-30T12:16:00,pth,3.60
2024-03-30T12:18:00,pth,4.80
2024-03-30T12:20:00,pth,3.60
2024-03-30T12:21:00,pth,2.40
2024-03-30T12:23:00,pth,4.80
2024-03-30T12:25:00,pth,4.80
2024-03-30T12:26:00,pth,1.20
2024-03-30T12:28:00,pth,4.80
2024-03-30T12:30:00,pth,3.60
2024-03-30T12:32:00,pth,4.80
2024-03-30T12:33:00,pth,2.40
2024-03-30T12:35:00,pth,4.80
2024-03-30T12:37:00,pth,4.80
2024-03-30T12:39:00,pth,4.80
2024-03-30T12:40:00,pth,1.20
2024-03-30T12:42:00,pth,4.80
2024-03-30T12:44:00,pth,3.60
2024-03-30T12:45:00,pth,1.19
2024-03-30T12:46:00,pth,2.40
2024-03-30T12:48:00,pth,3.60
2024-03-30T12:49:00,pth,2.40
2024-03-30T12:51:00,pth,4.80
2024-03-30T12:52:00,pth,1.19
2024-03-30T12:53:00,pth,2.40
2024-03-30T12:55:00,pth,3.60
2024-03-30T12:57:00,pth,3.60
2024-03-30T12:58:00,pth,2.40
2024-03-30T12:59:00,pth,1.20
2024-03-30T13:01:00,pth,3.60
2024-03-30T13:03:00,pth,4.80
2024-03-30T13:05:00,pth,3.60
2024-03-30T13:06:00,pth,1.20
2024-03-30T13:08:00,pth,3.60
2024-03-30T13:09:00,pth,2.40
2024-03-30T13:11:00,pth,3.60
2024-03-30T13:13:00,pth,3.60
2024-03-30T13:14:00,pth,1.20
2024-03-30T13:16:00,pth,3.60
2024-03-30T13:18:00,pth,3.60
2024-03-30T13:20:00,pth,3.60
2024-03-30T13:21:00,pth,2.40
2024-03-30T13:22:00,pth,1.20
2024-03-30T13:24:00,pth,4.80
2024-03-30T13:25:00,pth,1.20
2024-03-30T13:27:00,pth,3.60
2024-03-30T13:28:00,pth,2.40
2024-03-30T13:29:00,pth,1.20
2024-03-30T13:31:00,pth,3.60
2024-03-30T13:32:00,pth,2.40
2024-03-30T13:34:00,pth,3.60
2024-03-30T13:35:00,pth,1.20
2024-03-30T13:36:00,pth,2.40
2024-03-30T13:38:00,pth,3.60
2024-03-30T13:40:00,pth,2.40
2024-03-30T13:42:00,pth,3.60
2024-03-30T13:43:00,pth,2.40
2024-03-30T13:44:00,pth,1.20
2024-03-30T13:46:00,pth,3.60
2024-03-30T13:48:00,pth,3.60
2024-03-30T13:49:00,pth,2.40
2024-03-30T13:51:00,pth,3.60
2024-03-30T13:52:00,pth,1.20
2024-03-30T13:54:00,pth,4.80
2024-03-30T13:56:00,pth,3.60
2024-03-30T13:57:00,pth,1.20
2024-03-30T13:59:00,pth,3.60
2024-03-30T14:01:00,pth,3.60
2024-03-30T14:03:00,pth,3.60
2024-03-30T14:04:00,pth,2.40
2024-03-30T14:06:00,pth,3.60
2024-03-30T14:08:00,pth,4.80
2024-03-30T14:10:00,pth,3.60
2024-03-30T14:12:00,pth,4.80
2024-03-30T14:14:00,pth,3.60
2024-03-30T14:15:00,pth,2.40
2024-03-30T14:17:00,pth,3.60
2024-03-30T14:19:00,pth,3.60
2024-03-30T14:20:00,pth,2.40
2024-03-30T14:22:00,pth,3.60
2024-03-30T14:24:00,pth,4.80
2024-03-30T14:26:00,pth,4.80
2024-03-30T14:27:00,pth,2.40
2024-03-30T14:29:00,pth,4.80
2024-03-30T14:31:00,pth,4.80
2024-03-30T14:33:00,pth,4.80
2024-03-30T14:35:00,pth,4.80
2024-03-30T14:37:00,pth,7.20
2024-03-30T14:38:00,pth,2.40
2024-03-30T14:39:00,pth,2.40
2024-03-30T14:41:00,pth,3.60
2024-03-30T14:42:00,pth,2.40
2024-03-30T14:44:00,pth,3.60
2024-03-30T14:46:00,pth,4.80
2024-03-30T14:47:00,pth,1.20
2024-03-30T14:49:00,pth,4.80
2024-03-30T14:50:00,pth,1.19
2024-03-30T14:52:00,pth,4.80
2024-03-30T14:54:00,pth,3.60
2024-03-30T14:55:00,pth,2.40
2024-03-30T14:57:00,pth,3.60
2024-03-30T14:58:00,pth,2.40
2024-03-30T15:00:00,pth,3.60
2024-03-30T15:01:00,pth,2.40
2024-03-30T15:03:00,pth,3.60
2024-03-30T15:05:00,pth,4.80
2024-03-30T15:07:00,pth,3.60
2024-03-30T15:08:00,pth,2.40
2024-03-30T15:10:00,pth,4.80
2024-03-30T15:11:00,pth,1.20
2024-03-30T15:12:00,pth,2.40
2024-03-30T15:14:00,pth,3.60
2024-03-30T15:16:00,pth,4.80
2024-03-30T15:18:00,pth,3.60
2024-03-30T15:19:00,pth,1.20
2024-03-30T15:21:00,pth,4.80
2024-03-30T15:22:00,pth,2.40
2024-03-30T15:24:00,pth,3.60
2024-03-30T15:26:00,pth,3.60
2024-03-30T15:27:00,pth,2.40
2024-03-30T15:28:00,pth,1.20
2024-03-30T15:30:00,pth,4.80
2024-03-30T15:31:00,pth,1.19
2024-03-30T15:33:00,pth,4.80
2024-03-30T15:35:00,pth,3.60
2024-03-30T15:36:00,pth,2.40
2024-03-30T15:37:00,pth,2.40
2024-03-30T15:39:00,pth,3.60
2024-03-30T15:41:00,pth,4.80
2024-03-30T15:42:00,pth,2.40
2024-03-30T15:44:00,pth,3.60
2024-03-30T15:46:00,pth,6.00
2024-03-30T15:47:00,pth,2.40
2024-03-30T15:49:00,pth,4.80
2024-03-30T15:50:00,pth,2.40
2024-03-30T15:51:00,pth,1.19
2024-03-30T15:52:00,pth,2.40
2024-03-30T15:54:00,pth,4.80
2024-03-30T15:56:00,pth,3.60
2024-03-30T15:57:00,pth,1.20
2024-03-30T15:58:00,pth,2.40
2024-03-30T15:59:00,pth,2.40
2024-03-30T16:01:00,pth,3.60
2024-03-30T16:03:00,pth,4.80
2024-03-30T16:05:00,pth,3.60
2024-03-30T16:07:00,pth,3.60
2024-03-30T16:08:00,pth,2.40
2024-03-30T16:10:00,pth,4.80
2024-03-30T16:12:00,pth,3.60
2024-03-30T16:13:00,pth,2.40
2024-03-30T16:15:00,pth,9.60
2024-03-30T16:16:00,pth,7.20
2024-03-30T16:18:00,pth,15.60
2024-03-30T16:19:00,pth,7.20
2024-03-30T16:21:00,pth,14.40
2024-03-30T16:23:00,pth,14.40
2024-03-30T16:24:00,pth,8.40
2024-03-30T16:25:00,pth,7.20
2024-03-30T16:26:00,pth,7.20
2024-03-30T16:27:00,pth,7.20
2024-03-30T16:28:00,pth,7.20
2024-03-30T16:29:00,pth,7.20
2024-03-30T16:31:00,pth,15.60
2024-03-30T16:33:00,pth,14.40
2024-03-30T16:35:00,pth,14.40
2024-03-30T16:36:00,pth,7.20
2024-03-30T16:38:00,pth,14.41
2024-03-30T16:40:00,pth,14.40
2024-03-30T16:42:00,pth,14.40
2024-03-30T16:44:00,pth,14.40
2024-03-30T16:46:00,pth,14.40
2024-03-30T16:48:00,pth,14.40
2024-03-30T16:50:00,pth,14.40
2024-03-30T16:51:00,pth,8.40
2024-03-30T16:53:00,pth,14.40
2024-03-30T16:55:00,pth,14.40
2024-03-30T16:57:00,pth,14.40
2024-03-30T16:58:00,pth,7.20
2024-03-30T17:00:00,pth,14.40
2024-03-30T17:02:00,pth,15.60
2024-03-30T17:04:00,pth,14.40
2024-03-30T17:06:00,pth,14.40
2024-03-30T17:07:00,pth,8.40
2024-03-30T17:08:00,pth,4.80
2024-03-30T17:10:00,pth,9.59
2024-03-30T17:12:00,pth,14.40
2024-03-30T17:14:00,pth,9.60
2024-03-30T17:16:00,pth,3.60
2024-03-30T17:18:00,pth,3.60
2024-03-30T17:20:00,pth,2.40
2024-03-30T17:22:00,pth,4.80
2024-03-30T17:23:00,pth,1.20
2024-03-30T17:25:00,pth,4.80
2024-03-30T17:26:00,pth,1.20
2024-03-30T17:28:00,pth,3.60
2024-03-30T17:29:00,pth,2.40
2024-03-30T17:31:00,pth,4.80
2024-03-30T17:32:00,pth,2.40
2024-03-30T17:34:00,pth,3.60
2024-03-30T17:36:00,pth,4.80
2024-03-30T17:38:00,pth,3.60
2024-03-30T17:40:00,pth,6.00
2024-03-30T17:42:00,pth,7.20
2024-03-30T17:44:00,pth,6.00
2024-03-30T17:45:00,pth,2.40
2024-03-30T17:47:00,pth,4.80
2024-03-30T17:49:00,pth,4.80
2024-03-30T17:50:00,pth,2.40
2024-03-30T17:51:00,pth,2.40
2024-03-30T17:53:00,pth,3.60
2024-03-30T17:55:00,pth,4.80
2024-03-30T17:57:00,pth,3.60
2024-03-30T17:58:00,pth,2.40
2024-03-30T18:00:00,pth,3.60
2024-03-30T18:02:00,pth,4.80
2024-03-30T18:03:00,pth,2.40
2024-03-30T18:05:00,pth,3.60
2024-03-30T18:07:00,pth,4.80
2024-03-30T18:08:00,pth,1.19
2024-03-30T18:09:00,pth,2.40
2024-03-30T18:11:00,pth,3.60
2024-03-30T18:13:00,pth,3.60
2024-03-30T18:15:00,pth,4.80
2024-03-30T18:16:00,pth,2.40
2024-03-30T18:18:00,pth,3.60
2024-03-30T18:20:00,pth,4.80
2024-03-30T18:21:00,pth,2.40
2024-03-30T18:23:00,pth,3.60
2024-03-30T18:25:00,pth,4.80
2024-03-30T18:27:00,pth,4.80
2024-03-30T18:28:00,pth,1.20
2024-03-30T18:30:00,pth,4.80
2024-03-30T18:31:00,pth,2.40
2024-03-30T18:32:00,pth,2.40
2024-03-30T18:34:00,pth,4.80
2024-03-30T18:36:00,pth,3.60
2024-03-30T18:37:00,pth,2.40
2024-03-30T18:39:00,pth,4.80
2024-03-30T18:40:00,pth,2.40
2024-03-30T18:42:00,pth,3.60
2024-03-30T18:44:00,pth,3.60
2024-03-30T18:46:00,pth,4.80
2024-03-30T18:47:00,pth,2.40
2024-03-30T18:48:00,pth,3.60
2024-03-30T18:50:00,pth,6.00
2024-03-30T18:51:00,pth,2.40
2024-03-30T18:53:00,pth,4.80
2024-03-30T18:55:00,pth,3.60
2024-03-30T18:56:00,pth,2.40
2024-03-30T18:57:00,pth,1.20
2024-03-30T18:59:00,pth,3.60
2024-03-30T19:00:00,pth,2.40
2024-03-30T19:01:00,pth,2.40
2024-03-30T19:02:00,pth,1.20
2024-03-30T19:04:00,pth,3.60
2024-03-30T19:05:00,pth,2.40
2024-03-30T19:07:00,pth,3.60
2024-03-30T19:09:00,pth,3.60
2024-03-30T19:10:00,pth,1.20
2024-03-30T19:12:00,pth,4.80
2024-03-30T19:13:00,pth,3.60
2024-03-30T19:15:00,pth,3.60
2024-03-30T19:17:00,pth,4.80
2024-03-30T19:18:00,pth,2.40
2024-03-30T19:20:00,pth,4.80
2024-03-30T19:22:00,pth,4.80
2024-03-30T19:23:00,pth,2.40
2024-03-30T19:24:00,pth,2.40
2024-03-30T19:26:00,pth,4.80
2024-03-30T19:27:00,pth,2.40
2024-03-30T19:29:00,pth,4.80
2024-03-30T19:31:00,pth,3.60
2024-03-30T19:33:00,pth,4.80
2024-03-30T19:35:00,pth,3.60
2024-03-30T19:37:00,pth,4.80
2024-03-30T19:38:00,pth,2.40
2024-03-30T19:40:00,pth,4.80
2024-03-30T19:42:00,pth,4.80
2024-03-30T19:44:00,pth,3.60
2024-03-30T19:46:00,pth,4.80
2024-03-30T19:48:00,pth,4.80
2024-03-30T19:50:00,pth,4.80
2024-03-30T19:51:00,pth,2.40
2024-03-30T19:53:00,pth,3.60
2024-03-30T19:54:00,pth,2.40
2024-03-30T19:55:00,pth,2.40
2024-03-30T19:56:00,pth,1.20
2024-03-30T19:58:00,pth,4.80
2024-03-30T20:00:00,pth,3.60
2024-03-30T20:02:00,pth,4.80
2024-03-30T20:03:00,pth,2.40
2024-03-30T20:05:00,pth,4.80
2024-03-30T20:06:00,pth,1.20
2024-03-30T20:07:00,pth,2.40
2024-03-30T20:09:00,pth,4.80
2024-03-30T20:11:00,pth,3.60
2024-03-30T20:13:00,pth,4.80
2024-03-30T20:14:00,pth,1.20
2024-03-30T20:16:00,pth,4.80
2024-03-30T20:18:00,pth,4.80
2024-03-30T20:20:00,pth,3.60
2024-03-30T20:21:00,pth,2.40
2024-03-30T20:22:00,pth,2.40
2024-03-30T20:24:00,pth,3.60
2024-03-30T20:26:00,pth,3.60
2024-03-30T20:27:00,pth,2.40
2024-03-30T20:29:00,pth,4.80
2024-03-30T20:30:00,pth,2.40
2024-03-30T20:32:00,pth,4.80
2024-03-30T20:33:00,pth,2.40
2024-03-30T20:35:00,pth,4.80
2024-03-30T20:36:00,pth,2.40
2024-03-30T20:37:00,pth,2.40
2024-03-30T20:39:00,pth,4.80
2024-03-30T20:40:00,pth,2.40
2024-03-30T20:41:00,pth,2.40
2024-03-30T20:43:00,pth,4.80
2024-03-30T20:45:00,pth,4.80
2024-03-30T20:46:00,pth,2.40
2024-03-30T20:48:00,pth,7.20
2024-03-30T20:50:00,pth,8.40
2024-03-30T20:51:00,pth,4.80
2024-03-30T20:53:00,pth,9.60
2024-03-30T20:55:00,pth,9.60
2024-03-30T20:57:00,pth,7.20
2024-03-30T20:58:00,pth,3.60
2024-03-30T21:00:00,pth,6.00
2024-03-30T21:01:00,pth,2.40
2024-03-30T21:03:00,pth,6.00
2024-03-30T21:04:00,pth,2.40
2024-03-30T21:05:00,pth,2.40
2024-03-30T21:07:00,pth,4.80
2024-03-30T21:09:00,pth,6.00
2024-03-30T21:11:00,pth,3.60
2024-03-30T21:12:00,pth,2.40
2024-03-30T21:13:00,pth,3.60
2024-03-30T21:15:00,pth,4.80
2024-03-30T21:17:00,pth,4.80
2024-03-30T21:19:00,pth,4.80
2024-03-30T21:20:00,pth,2.40
2024-03-30T21:22:00,pth,4.80
2024-03-30T21:24:00,pth,4.80
2024-03-30T21:25:00,pth,2.40
2024-03-30T21:27:00,pth,4.80
2024-03-30T21:29:00,pth,4.80
2024-03-30T21:31:00,pth,4.80
2024-03-30T21:33:00,pth,4.80
2024-03-30T21:35:00,pth,4.80
2024-03-30T21:36:00,pth,2.40
2024-03-30T21:38:00,pth,4.80
2024-03-30T21:40:00,pth,4.80
2024-03-30T21:42:00,pth,4.80
2024-03-30T21:44:00,pth,4.80
2024-03-30T21:46:00,pth,6.00
2024-03-30T21:47:00,pth,2.40
2024-03-30T21:49:00,pth,4.80
2024-03-30T21:51:00,pth,6.01
2024-03-30T21:53:00,pth,4.80
2024-03-30T21:55:00,pth,4.80
2024-03-30T21:57:00,pth,4.80
2024-03-30T21:58:00,pth,2.40
2024-03-30T22:00:00,pth,4.80
2024-03-30T22:01:00,pth,2.40
2024-03-30T22:03:00,pth,4.80
2024-03-30T22:05:00,pth,3.60
2024-03-30T22:06:00,pth,2.40
2024-03-30T22:08:00,pth,4.80
2024-03-30T22:10:00,pth,4.80
2024-03-30T22:12:00,pth,4.80
2024-03-30T22:13:00,pth,2.40
2024-03-30T22:14:00,pth,1.19
2024-03-30T22:16:00,pth,4.80
2024-03-30T22:17:00,pth,2.40